User: anonymous
Location: El Centro
(32.7920°N, 115.5620°W)
Time: 08:50:24
(UTC-07:00)
Language:

Hamsat - Orbit

View from above orbital plane
View from above orbital plane
View from above satellite
View from above satellite

Ground track
Ground track

The orbit data is extracted from the following two-line orbital elements,

1 28650U 05017B   14262.04407479  .00002035  00000-0  23880-3 0  8458
2 28650 097.5634 262.3481 0024666 204.3990 155.6060 14.85778144507165
Epoch (UTC): 19 September 2014 01:03:28
Eccentricity: 0.0024666
inclination: 97.5634°
perigee height: 594 km
apogee height: 628 km
right ascension of ascending node: 262.3481°
argument of perigee: 204.3990°
revolutions per day: 14.85778144
mean anomaly at epoch: 155.6060°
orbit number at epoch: 50716

The dashed part of the orbit path shows where the satellite is in the earth's shadow,  

DLR